Regional Weather Roundup
Issued by NWS New Orleans/Baton Rouge, LA

Home | Current Version | Previous Version | Text Only | Print | Product List | Glossary On
Versions: 1 2 3 4 5 6 7 8 9 10 11 12 13 14 15 16 17 18 19 20 21 22 23 24 25 26 27 28 29 30 31 32 33 34 35 36 37 38 39 40 41 42 43 44 45 46 47 48
822
ASUS44 KLIX 090110
RWRLIX
NEW ORLEANS REGIONAL WEATHER ROUNDUP
NATIONAL WEATHER SERVICE NEW ORLEANS LA
700 PM CST MON FEB 08 2016

NOTE: "FAIR" INDICATES FEW OR NO CLOUDS BELOW 12,000 FEET WITH NO
      SIGNIFICANT WEATHER AND/OR OBSTRUCTIONS TO VISIBILITY.
      SKY/WX - SKY CONDITION AND SIGNIFICANT WEATHER.
      TMP - AIR TEMPERATURE.     DP    - DEWPOINT TEMPERATURE.
      RH  - RELATIVE HUMIDITY.   PRES  - PRESSURE.
      HI  - HEAT INDEX.          WCI   - WIND CHILL INDEX.

*  THESE STATIONS ARE NOT NWS OR FAA STATIONS AND ARE NOT UNDER
   NWS QUALITY CONTROL.

LAZ038-040-048-061>063-065>067-069-090200-
SOUTHEAST LOUISIANA

CITY           SKY/WX    TMP DP  RH WIND       PRES   REMARKS
N.O. AUDUBON   NOT AVBL
N.O. INTL ARPT PTCLDY    52  16  24 NW18      30.08R
N.O. LAKEFRONT CLEAR     52  27  38 NW25      30.07R
N.O. DOWNTOWN*   N/A     54  18  24 MISG      30.08R
RESERVE*         N/A     54   7  15 NW15G25   30.09R
SLIDELL        CLEAR     51  14  22 NW6       30.06R
BATON ROUGE    CLEAR     51  11  20 NW15      30.10R
BOOTHVILLE     CLEAR     52  26  36 NW15G24   30.07R
BELLE CHASSE   PTCLDY    53  16  23 NW12G17   30.07R
BOGALUSA*        N/A     49  14  25 NW10G16   30.07R
GALLIANO*      CLEAR    N/A N/A N/A NW10      30.08R
NEW ROADS*       N/A     50  15  24 NW21G29   30.12R
GONZALES*        N/A     52  14  22 NW10G17   30.09R
HAMMOND*       CLEAR     50  10  20 NW10G21   30.07R
HOUMA*         CLEAR     54  12  19 NW17G24   30.09R
PORT FOURCHON* CLEAR     55  27  33 NW21      30.09R

$$

MSZ070-080>082-090200-
SOUTHERN MISSISSIPPI

CITY           SKY/WX    TMP DP  RH WIND       PRES   REMARKS
MCCOMB         PTCLDY    46  18  32 NW8       30.05R
GULFPORT       CLEAR     49  16  26 NW13G28   30.03R
BILOXI         NOT AVBL
PASCAGOULA     CLEAR     50  18  28 NW14G22   30.02R
STENNIS ARPT*  CLEAR     48   3  15 NW9G25    30.05R

$$

COASTAL OBSERVATIONS
LAKE AND NEARSHORE STATIONS

STATION/POSITION TIME  TEMP    WIND        PRES    WAVE
                       AIR SEA DIR/SP/G            HT/PER
                 (UTC) (F)     (DEG/KT/KT) (MB)    (FT/S)
PASCAGOULA       0000   53     320/ 15/ 23 1014.7
WAVELAND YACHT   0000   53 52  330/ 12/ 14 1016.1
GRAND ISLE       0000   56 56  320/ 19/ 22 1017.1
NEW CANAL        0000   54 54  300/ 11/ 21 1016.7
SHELL BEACH      0000   54 54  300/ 25/ 31 1016.1

OFFSHORE STATIONS

STATION/POSITION TIME  TEMP    WIND        PRES    WAVE
                       AIR SEA DIR/SP/G            HT/PER
                 (UTC) (F)     (DEG/KT/KT) (MB)    (FT/S)

$$





USA.gov is the U.S. government's official web portal to all federal, state and local government web resources and services.